[[{"header":{"parameterUnit":"m.s-1","parameterCategory":1,"la1":30.2991,"la2":30.254,"lo1":-89.0895,"lo2":-89.0444,"dx":0.0017,"dy":0.0017,"nx":28,"ny":28,"refTime":"2022-11-05T15:00:00:Z","depth":0,"parameterNumber":2,"parameterNumberName":"U-component_of_WINDS"},"data":[0,0,0,0,0,0,0,0,0,0,0,0,0,0,0,0,0,0,0,0,0,0,0,0,0,0,0,0,0,0,0,0,0,0,0,0,0,0,0,0,0,0,0,0,0,0,0,0,0,0,0,0,0,0,0,0,0,0,-1.0073,-1.0073,0,-1.0048,-1.0048,-1.0047,-0.9987,-0.9985,-0.9984,-0.9983,-0.996,-0.996,-0.9961,0,0,0,0,0,0,0,0,0,0,0,0,0,-1.0071,-1.0071,-1.0073,-1.0073,-1.0072,-1.0048,-1.0048,-1.0047,-0.9987,-0.9985,-0.9984,-0.9982,-0.9959,-0.996,-0.9961,0,0,0,0,0,0,0,0,0,0,0,0,0,-1.0062,-1.0071,-1.0073,-1.0039,-1.0036,-1.0048,-1.0048,-1.0047,-0.9987,-0.9985,-0.9983,-0.9982,-0.9959,-0.996,-0.9961,-1.0005,0,0,-0.9964,-0.9964,0,0,0,0,0,0,0,0,-1.0062,-1.0062,-1.0044,-1.0041,-1.0038,-1.0018,-1.0038,-1.0033,-0.9988,-1.0006,-0.9983,-0.9981,-0.9981,-0.998,-0.9979,-1.0004,-1.0003,-0.9964,-0.9964,-0.9965,-0.9965,0,0,0,0,0,0,0,-1.0063,-1.0062,-1.0063,-1.0044,-1.004,-1.0026,-1.0023,-1.0037,-1.0005,-1.0004,-1.0,-0.9997,-0.9979,-0.9979,-0.9978,-1.0002,-0.9964,-0.9964,-0.9965,-0.9965,-1.0062,-1.0064,0,0,0,0,0,0,-1.0068,-1.0063,-1.0064,-1.0062,-1.0045,-1.0028,-1.0024,-1.0027,-1.0004,-0.9999,-0.9999,-0.9995,-0.9978,-0.9978,-0.9977,-1.0028,-0.9965,-0.9965,-0.9966,-1.006,-1.0063,-1.0065,0,0,0,0,0,0,-1.0068,-1.0069,-1.0065,-1.0062,-1.006,-1.003,-1.0033,-1.0027,-1.0027,-1.0,-0.9994,-1.0005,-0.9977,-0.9976,-0.9998,-1.0026,-0.9966,-0.9967,-1.0058,-1.0061,-1.0064,-1.0128,0,0,0,0,0,0,-1.0068,-1.0069,-1.0085,-1.0062,-1.006,-1.0086,-1.0035,-1.0028,-1.0028,-1.0022,-1.0004,-0.9999,-0.9975,-0.9997,-0.9999,-1.0026,-0.9967,-1.0055,-1.0059,-1.0063,-1.0124,-1.0133,-1.0142,0,0,0,0,0,-1.0069,-1.0104,-1.0086,-1.0086,-1.0079,-1.0087,-1.0086,-1.0057,-1.0031,-1.0047,-1.003,-1.0,-1.0023,-1.0,-1.0002,-1.0029,-1.0053,-1.0058,-1.0062,-1.012,-1.0131,-1.0141,0,0,0,0,0,0,-1.0131,-1.0101,-1.008,-1.0109,-1.0101,-1.0077,-1.0096,-1.007,-1.007,-1.0065,-1.0029,-1.0026,-1.0053,-1.0043,-1.0019,-1.0071,-1.0033,-1.0038,-1.0076,-1.0087,-1.0096,-1.0098,-0.9968,0,0,0,0,0,-1.0148,-1.0157,-1.013,-1.0158,-1.0155,-1.0127,-1.0129,-1.0107,-1.0098,-1.0094,-1.0079,-1.0072,-1.0077,-1.0082,-1.0085,-1.0122,-1.0118,-1.0142,-1.0151,-1.0158,-1.0163,-1.0183,-1.0194,-1.008,-1.008,-1.008,0,0,-1.0184,-1.0168,-1.0176,-1.017,-1.0162,-1.0172,-1.0124,-1.0137,-1.0145,-1.0097,-1.0116,-1.0105,-1.0095,-1.0125,-1.0137,-1.0118,-1.0194,-1.0164,-1.017,-1.0171,-1.0189,-1.02,-1.0209,-1.0083,-1.0083,-1.0082,0,0,-1.0254,-1.0243,-1.0265,-1.0258,-1.0245,-1.0226,-1.0232,-1.0211,-1.0202,-1.0221,-1.0185,-1.0195,-1.0205,-1.0199,-1.0197,-1.0267,-1.024,-1.0269,-1.0316,-1.0335,-1.0344,-1.0352,-1.0378,-1.0387,-1.0274,-1.0274,-1.0274,0,-1.03,-1.0313,-1.0281,-1.0296,-1.0295,-1.0252,-1.0275,-1.0269,-1.0259,-1.026,-1.0238,-1.025,-1.024,-1.0269,-1.0286,-1.0286,-1.0292,-1.0271,-1.0346,-1.0353,-1.036,-1.0384,-1.0393,-1.0278,-1.0277,-1.0277,-1.0277,0,-1.0371,-1.0381,-1.0401,-1.0391,-1.0393,-1.0412,-1.0384,-1.0389,-1.0368,-1.0351,-1.0372,-1.0359,-1.0359,-1.0364,-1.0343,-1.039,-1.0379,-1.0352,-1.0313,-1.0375,-1.0397,-1.0406,-1.0283,-1.0282,-1.0281,-1.028,0,0,-1.048,-1.0452,-1.046,-1.0455,-1.0439,-1.0446,-1.0464,-1.0464,-1.047,-1.0464,-1.0479,-1.0489,-1.0464,-1.0463,-1.0441,-1.0458,-1.0515,-1.0429,-1.0429,-1.0446,-1.0567,-1.0588,-1.0599,-1.0497,-1.0499,-1.05,-1.0568,0,-1.0546,-1.0574,-1.0546,-1.058,-1.0589,-1.0549,-1.0564,-1.0557,-1.0542,-1.0549,-1.0533,-1.054,-1.0507,-1.0506,-1.0521,-1.0505,-1.0539,-1.05,-1.0511,-1.0512,-1.0516,-1.061,-1.0631,-1.0696,-1.0576,-1.0578,-1.0579,0,-1.0627,-1.0625,-1.066,-1.0642,-1.0644,-1.0659,-1.0657,-1.0664,-1.0654,-1.0642,-1.0641,-1.0615,-1.0632,-1.0595,-1.0619,-1.0593,-1.0596,-1.0589,-1.0591,-1.0591,-1.055,-1.0613,-1.0716,-1.0726,-1.0592,-1.0591,-1.059,0,-1.0704,-1.0709,-1.0731,-1.0729,-1.0708,-1.0719,-1.0711,-1.0699,-1.0702,-1.07,-1.0701,-1.0703,-1.0703,-1.0705,-1.0681,-1.0655,-1.0708,-1.0668,-1.07,-1.0701,-1.0713,-1.0713,-1.0819,-1.0715,-1.0715,-1.0714,-1.0714,0,-1.0781,-1.0804,-1.0765,-1.0779,-1.0804,-1.0772,-1.0798,-1.0786,-1.0777,-1.0788,-1.0753,-1.0765,-1.0731,-1.0739,-1.072,-1.0744,-1.0744,-1.0736,-1.0731,-1.0739,-1.0741,-1.0741,-1.0736,-1.0717,-1.0716,-1.0716,-1.0716,0,-1.087,-1.0845,-1.0867,-1.0845,-1.084,-1.086,-1.0842,-1.0854,-1.0837,-1.0852,-1.0854,-1.0828,-1.0836,-1.0812,-1.0816,-1.0803,-1.0838,-1.0825,-1.0841,-1.0837,-1.087,-1.0868,-1.0981,-1.0995,-1.0882,-1.0883,-1.0884,0,-1.0922,-1.0938,-1.0919,-1.0923,-1.0917,-1.0925,-1.0927,-1.0896,-1.09,-1.0891,-1.0905,-1.091,-1.0912,-1.0928,-1.091,-1.0914,-1.0901,-1.094,-1.0901,-1.091,-1.0902,-1.0902,-1.0904,-1.0948,-1.095,-1.0951,-1.0952,0,-1.1015,-1.1002,-1.1006,-1.1005,-1.1008,-1.1007,-1.1003,-1.1009,-1.0976,-1.0982,-1.099,-1.0992,-1.0996,-1.1003,-1.1002,-1.0995,-1.0969,-1.0964,-1.0972,-1.0981,-1.099,-1.0986,-1.0863,-1.0962,-1.0961,-1.096,-1.096,-1.0959,-1.1087,-1.1101,-1.1089,-1.1095,-1.1088,-1.1086,-1.1096,-1.1081,-1.1087,-1.1087,-1.1069,-1.1081,-1.1072,-1.1069,-1.1065,-1.1074,-1.1056,-1.1067,-1.107,-1.1073,-1.1079,-1.0988,-1.1074,-1.1074,-1.1073,-1.1073,-1.1073,0,-1.118,-1.117,-1.1176,-1.1171,-1.1176,-1.115,-1.1144,-1.115,-1.1161,-1.1154,-1.1158,-1.1167,-1.1173,-1.1156,-1.116,-1.1171,-1.1159,-1.1173,-1.1172,-1.1171,-1.1095,-1.1088,-1.1182,-1.1182,-1.1182,-1.1182,-1.1182,-1.1182,-1.1228,-1.125,-1.1236,-1.1255,-1.1245,-1.1256,-1.1255,-1.1253,-1.1248,-1.126,-1.1264,-1.1253,-1.1242,-1.1245,-1.125,-1.1245,-1.1248,-1.1267,-1.1258,-1.1187,-1.1176,-1.1166,-1.116,-1.1268,-1.1268,-1.1333,-1.1334,-1.1334]},{"header":{"parameterUnit":"m.s-1","parameterCategory":1,"la1":30.2991,"la2":30.254,"lo1":-89.0895,"lo2":-89.0444,"dx":0.0017,"dy":0.0017,"nx":28,"ny":28,"refTime":"2022-11-05T15:00:00:Z","depth":0,"parameterNumber":3,"parameterNumberName":"V-component_of_WINDS"},"data":[0,0,0,0,0,0,0,0,0,0,0,0,0,0,0,0,0,0,0,0,0,0,0,0,0,0,0,0,0,0,0,0,0,0,0,0,0,0,0,0,0,0,0,0,0,0,0,0,0,0,0,0,0,0,0,0,0,0,0.3078,0.3078,0,0.3059,0.3059,0.3059,0.306,0.3061,0.3061,0.3061,0.3038,0.3037,0.3036,0,0,0,0,0,0,0,0,0,0,0,0,0,0.3114,0.3113,0.3078,0.3078,0.3078,0.3059,0.3059,0.3059,0.306,0.3061,0.3061,0.3061,0.3038,0.3037,0.3036,0,0,0,0,0,0,0,0,0,0,0,0,0,0.3097,0.3113,0.3078,0.3077,0.3076,0.3059,0.3059,0.3059,0.306,0.3061,0.3061,0.3061,0.3039,0.3037,0.3036,0.3019,0,0,0.3032,0.3032,0,0,0,0,0,0,0,0,0.3098,0.3096,0.3077,0.3077,0.3076,0.3063,0.3063,0.3045,0.306,0.3066,0.3061,0.3062,0.3046,0.3044,0.3039,0.3018,0.3017,0.3032,0.3031,0.3031,0.303,0,0,0,0,0,0,0,0.3099,0.3096,0.3071,0.3077,0.3076,0.3076,0.3074,0.306,0.3053,0.3066,0.3066,0.3064,0.3046,0.304,0.3039,0.3017,0.3032,0.3031,0.303,0.3029,0.298,0.298,0,0,0,0,0,0,0.3101,0.3097,0.3071,0.307,0.3088,0.3075,0.3073,0.3066,0.3054,0.3052,0.3063,0.3064,0.3043,0.304,0.3038,0.3017,0.3031,0.3029,0.3029,0.2981,0.298,0.298,0,0,0,0,0,0,0.3102,0.3099,0.3072,0.3084,0.308,0.3074,0.3067,0.3066,0.3061,0.3052,0.3051,0.3059,0.3043,0.304,0.3024,0.3016,0.3029,0.3028,0.2982,0.2981,0.298,0.2975,0,0,0,0,0,0,0.3103,0.3099,0.3093,0.3084,0.308,0.3059,0.3066,0.3065,0.3059,0.3059,0.3048,0.3046,0.3043,0.3026,0.3023,0.3015,0.3026,0.2982,0.2981,0.298,0.2976,0.2974,0.2973,0,0,0,0,0,0.3104,0.3091,0.3093,0.3089,0.3072,0.3059,0.3057,0.3054,0.3058,0.3052,0.3046,0.3047,0.3018,0.3024,0.3021,0.3012,0.2983,0.2981,0.298,0.2977,0.2975,0.2973,0,0,0,0,0,0,0.3099,0.309,0.3091,0.3075,0.3068,0.3059,0.3051,0.3052,0.3042,0.3042,0.3038,0.3036,0.302,0.3014,0.3022,0.2995,0.3001,0.2999,0.2999,0.2997,0.2996,0.2997,0.3025,0,0,0,0,0,0.3096,0.3087,0.3079,0.3066,0.3062,0.3057,0.3051,0.305,0.3042,0.3038,0.3031,0.3022,0.3011,0.3004,0.2993,0.2975,0.2973,0.2968,0.2966,0.2965,0.2963,0.2954,0.2951,0.2976,0.2976,0.2976,0,0,0.3089,0.3084,0.3078,0.3065,0.3059,0.3049,0.3055,0.3043,0.3036,0.3036,0.3021,0.3016,0.3006,0.2989,0.2981,0.2984,0.2956,0.2964,0.2963,0.2961,0.2952,0.295,0.2948,0.2975,0.2975,0.2976,0,0,0.3072,0.3067,0.3056,0.305,0.3042,0.3039,0.3036,0.3027,0.3024,0.301,0.301,0.3,0.2981,0.2974,0.2968,0.2949,0.2949,0.2946,0.2938,0.2928,0.2926,0.2925,0.2918,0.2916,0.2944,0.2944,0.2944,0,0.3065,0.3051,0.305,0.3039,0.3033,0.3035,0.3023,0.3017,0.3005,0.3,0.3004,0.2981,0.2974,0.2955,0.2951,0.2946,0.2942,0.2947,0.2927,0.2925,0.2923,0.2917,0.2914,0.2944,0.2944,0.2944,0.2944,0,0.3043,0.3033,0.3024,0.3014,0.3007,0.2996,0.2992,0.2986,0.2985,0.2981,0.2966,0.2958,0.2946,0.2942,0.2941,0.2924,0.2926,0.2928,0.2934,0.2921,0.2915,0.2912,0.2943,0.2943,0.2943,0.2944,0,0,0.3021,0.3011,0.3008,0.3004,0.2995,0.2987,0.2975,0.2965,0.2959,0.2951,0.2941,0.2925,0.2928,0.2921,0.2919,0.2911,0.2897,0.2914,0.2914,0.2911,0.2877,0.2875,0.2872,0.2897,0.2896,0.2896,0.2878,0,0.3003,0.2984,0.2983,0.2966,0.2957,0.2958,0.2948,0.2941,0.2938,0.2929,0.2924,0.2913,0.2918,0.2913,0.2906,0.29,0.289,0.2901,0.2887,0.2886,0.2889,0.2869,0.2867,0.285,0.2876,0.2875,0.2875,0,0.298,0.2972,0.2954,0.2948,0.2944,0.2935,0.2925,0.2917,0.2909,0.2907,0.29,0.2899,0.2887,0.2894,0.2876,0.2884,0.2878,0.2875,0.2874,0.2872,0.288,0.2867,0.2845,0.2842,0.2871,0.2871,0.2872,0,0.2966,0.2951,0.2939,0.2935,0.2926,0.292,0.2916,0.2909,0.2903,0.2894,0.289,0.288,0.2874,0.2866,0.2862,0.2867,0.2845,0.2851,0.2842,0.2842,0.2837,0.2837,0.2814,0.2834,0.2834,0.2834,0.2834,0,0.2946,0.2935,0.2933,0.2925,0.2912,0.2911,0.2898,0.2895,0.2888,0.2879,0.288,0.2871,0.2867,0.2857,0.2854,0.284,0.2838,0.2835,0.2834,0.2835,0.2835,0.2831,0.2831,0.2833,0.2833,0.2833,0.2833,0,0.2928,0.2926,0.2913,0.2906,0.2905,0.2896,0.289,0.2882,0.2879,0.2868,0.2865,0.286,0.2848,0.2844,0.283,0.2828,0.2812,0.2812,0.2815,0.2815,0.2806,0.2807,0.2778,0.2775,0.2797,0.2797,0.2797,0,0.2916,0.2908,0.2901,0.2895,0.2892,0.2883,0.2877,0.2875,0.2869,0.286,0.2853,0.2842,0.2834,0.2816,0.281,0.2799,0.2799,0.279,0.2797,0.2798,0.2799,0.2799,0.2798,0.2788,0.2788,0.2788,0.2788,0,0.2894,0.2893,0.2886,0.2878,0.2871,0.2864,0.2858,0.2853,0.285,0.2843,0.2833,0.2826,0.2813,0.2802,0.2791,0.2786,0.2786,0.2786,0.2783,0.2783,0.2785,0.2784,0.2811,0.2786,0.2786,0.2786,0.2787,0.2787,0.2878,0.2871,0.2865,0.2857,0.2852,0.2846,0.2838,0.2835,0.2827,0.2816,0.2816,0.2804,0.2797,0.2782,0.2777,0.2767,0.277,0.2766,0.2765,0.2764,0.2763,0.2787,0.2765,0.2765,0.2765,0.2765,0.2765,0,0.2856,0.2853,0.2845,0.2836,0.2829,0.2832,0.2825,0.2819,0.2809,0.2802,0.2794,0.2782,0.2772,0.2766,0.2755,0.2749,0.2749,0.2746,0.2746,0.2745,0.2762,0.2765,0.2746,0.2746,0.2746,0.2746,0.2746,0.2746,0.2844,0.2832,0.2831,0.2816,0.2813,0.2803,0.2798,0.2793,0.2788,0.2775,0.2767,0.2763,0.2757,0.2746,0.2736,0.2735,0.2731,0.2728,0.2726,0.2742,0.2744,0.2746,0.2749,0.2727,0.2727,0.2711,0.271,0.271]}]]